Tiempo atmosférico en la estación meteorológica de Grazalema, Cádiz (900 m.)



Fecha
DESCASC
Temp. máxima en grados centígrados (hora)
DESCASC
Temp. mínima en grados centígrados (hora)
DESCASC
Temp. media en grados centígrados
DESCASC
Racha de viento máxima en m/sg (hora)
DESCASC
Velocidad máxima media en intervalos de 10 minutos(hora)
DESCASC
Precipitaciones diarias en mm
DESCASC
Precipitaciones de 00:00 a 06:00 en mm
DESCASC
Precipitaciones de 06:00 a 12:00 en mm
DESCASC
Precipitaciones de 12:00 a 18:00 en mm
DESCASC
Precipitaciones de 18:00 a 24:00 en mm
DESCASC
28-02-2021 10.1 (12:00) 7.1 (05:40) 8.6 12.5 (11:40) 6.39 (11:30) 0 0 0 0 0
27-02-2021 12.8 (15:10) 5.4 (21:20) 9.1 6.39 (01:00) 3.33 (03:40) 0 0 0 0 0
26-02-2021 12.2 (12:10) 5.8 (21:30) 9 11.67 (11:20) 5.56 (11:10) 0 0 0 0 0
25-02-2021 14.1 (15:40) 8.4 (00:00) 11.3 12.22 (00:30) 5.83 (00:30) 0 0 0 0 0
24-02-2021 12.3 (16:40) 7 (00:00) 9.7 17.78 (07:20) 8.61 (03:30) 0 0 0 0 0
23-02-2021 13.5 (14:40) 1.7 (00:00) 7.6 9.72 (23:30) 5 (23:30) 0 0 0 0 0
22-02-2021 10.2 (15:10) 2.6 (00:00) 6.4 8.33 (04:10) 3.89 (04:20) 0 0 0 0 0
21-02-2021 15.1 (00:10) 4 (00:00) 9.6 12.22 (11:30) 3.33 (13:10) 37.9 0 12.6 20.3 5
20-02-2021 18.5 (14:00) 11.7 (00:00) 15.1 8.61 (22:00) 2.22 (18:40) 0 0 0 0 0
19-02-2021 18.6 (15:10) 6.6 (00:00) 12.6 6.39 (11:50) 2.78 (00:20) 0 0 0 0 0
18-02-2021 16.1 (14:30) 5.6 (00:00) 10.9 3.61 (23:10) 2.78 (23:10) 0 0 0 0 0
17-02-2021 21 (14:40) 7.2 (00:00) 14.1 5.28 (15:50) 2.78 (01:20) 0 0 0 0 0
16-02-2021 19.5 (15:20) 6.2 (00:00) 12.8 4.44 (01:30) 2.5 (23:59) 0 0 0 0 0
15-02-2021 18.7 (16:20) 6.9 (00:00) 12.8 9.72 (01:40) 3.61 (01:40) 0 0 0 0 0
14-02-2021 17.8 (12:00) 4.3 (00:00) 11 9.17 (23:10) 3.89 (15:30) 0 0 0 0 0
13-02-2021 17.5 (12:30) 2.6 (00:00) 10 3.89 (12:30) 2.78 (20:10) 0 0 0 0 0
12-02-2021 13.8 (14:20) 8.2 (00:00) 11 8.89 (15:40) 2.78 (14:50) 7 0.6 6.4 0 0
11-02-2021 13.1 (13:30) 6.7 (00:00) 9.9 5 (00:10) 2.5 (00:40) 3.3 3 0.3 0 0
10-02-2021 11.1 (12:40) 7.8 (00:00) 9.5 13.89 (02:20) 3.89 (01:30) 172 20.8 51.8 77.2 22.2
09-02-2021 10 (16:50) 6.5 (00:00) 8.3 13.61 (17:50) 4.17 (14:10) 62.3 0.1 6.1 24.4 31.7
08-02-2021 9.6 (07:40) 6.2 (00:00) 7.9 11.67 (04:20) 3.89 (14:20) 66 37.7 27.9 0 0.4
07-02-2021 6.6 (23:59) 3.9 (00:00) 5.3 11.11 (18:00) 4.17 (18:00) 24.1 9.9 0.9 0 13.3
06-02-2021 7.4 (14:00) 4.8 (00:00) 6.1 10.28 (03:50) 3.06 (00:10) 25.4 9.8 5.7 2.2 7.7
05-02-2021 14.4 (01:20) 5.4 (00:00) 9.9 9.72 (17:20) 3.33 (15:00) 6.2 0 0 0.8 5.4
04-02-2021 16.3 (15:40) 3.9 (00:00) 10.1 9.17 (11:50) 3.33 (14:30) 0 0 0 0 0
03-02-2021 14.7 (13:50) 3.7 (00:00) 9.2 5.28 (16:00) 2.5 (16:00) 0 0 0 0 0
02-02-2021 15.3 (14:40) 5.3 (00:00) 10.3 3.89 (21:50) 2.22 (21:00) 0 0 0 0 0
01-02-2021 12.7 (13:50) 5.4 (00:00) 9 10 (00:30) 4.17 (17:40) 10.8 10.7 0.1 0 0
31-01-2021 11.8 (13:40) 6.4 (00:00) 9.1 11.94 (12:30) 6.67 (12:10) 8.4 0 0.1 0 8.3

Gráficas

Temp. máximas Temp. mínimas Temp. medias Precipitaciones Rachas de viento máximas Velocidades máximas media en intervalos de 10 minutos

Datos horarios

Fecha y hora oficial Temperatura (ºC) Velocidad del viento (km/h) Dirección del viento Racha (km/h) Dirección de racha Precipitación (mm) Presión (hPa) Tendencia (hPa) Humedad (%)
2021-03-01 23:00:00 8.4 4 Noroeste 9 Sudeste 0.8 915.8 1.7 91
2021-03-01 22:00:00 7.7 5 Noroeste 8 Noroeste 0 915.3 1.8 86
2021-03-01 21:00:00 7 6 Noroeste 9 Noroeste 0 914.7 2.1 86
2021-03-01 20:00:00 8.4 5 Noroeste 7 Noroeste 0 914.1 1.6 82
2021-03-01 19:00:00 10.3 0 Calma 14 Este 0 913.5 1 73
2021-03-01 18:00:00 11.1 7 Este 17 Este 0 912.6 0.2 70
2021-03-01 17:00:00 11.2 9 Este 18 Sudeste 0 912.5 -0.1 68
2021-03-01 16:00:00 11.1 7 Este 18 Este 0 912.5 -0.8 72
2021-03-01 15:00:00 11.4 10 Este 22 Sudeste 0 912.4 -0.9 70
2021-03-01 14:00:00 10.9 7 Este 25 Este 0 912.6 -- 73
2021-03-01 13:00:00 10.4 11 Este 24 Sudeste 0 913.3 -- 76
2021-03-01 12:00:00 9.6 11 Este 27 Este 0 913.3 -- 78
2021-03-01 11:00:00 9.7 10 Este 27 Este 0 912.7 -- 78
2021-03-01 10:00:00 9.4 12 Este 26 Este 0 912.6 -- 78
2021-03-01 09:00:00 8.7 7 Este 23 Este 0 912.3 -- 79
2021-03-01 08:00:00 8.6 9 Sudeste 18 Nordeste 0 912.1 -- 80
2021-03-01 07:00:00 8.5 8 Este 22 Sudeste 0 911.8 -- 77
2021-03-01 06:00:00 8.1 7 Sur 24 Este 0.4 911.6 -- 78
2021-03-01 05:00:00 7.8 7 Sudeste 24 Sudeste 0.1 911.7 -- 80
2021-03-01 04:00:00 7.7 9 Este 26 Este 0 911.8 -- 81
2021-03-01 03:00:00 7.9 11 Este 24 Este 0 912.2 -- 82
2021-03-01 02:00:00 7.9 6 Este 20 Sur 0.1 912.3 -- 82
2021-03-01 01:00:00 8.1 6 Este 30 Este 0 912.4 -- 84
2021-03-01 00:00:00 8.8 17 Este 35 Sudeste 0 912.7 -- 83
2021-02-28 23:00:00 8.7 11 Este 32 Sudeste 0 912.5 -- 83
2021-02-28 22:00:00 8.9 10 Este 31 Este 0 912.3 -- 80
2021-02-28 21:00:00 8.7 15 Este 32 Este 0 911.8 -- 78
2021-02-28 20:00:00 8.7 15 Sudeste 30 Sudeste 0 911.8 -- 79
2021-02-28 19:00:00 8.8 10 Este 25 Sudeste 0 911.6 -- 80
2021-02-28 18:00:00 8.8 9 Este 26 Este 0 911.7 -- 82
2021-02-28 17:00:00 9.4 11 Este 31 Sudeste 0 911.6 -- 76
2021-02-28 16:00:00 9.3 9 Nordeste 31 Este 0 911.8 -- 76
2021-02-28 15:00:00 8.9 11 Este 33 Este 0 912.2 -- 78
2021-02-28 14:00:00 9.4 11 Este 40 Este 0 912.5 -- 77
2021-02-28 13:00:00 9.4 18 Este 42 Este 0 913.6 -- 75
2021-02-28 12:00:00 9.9 18 Este 45 Este 0 913.6 -- 76
2021-02-28 11:00:00 8.8 17 Este 29 Este 0 913.5 -- 81
2021-02-28 10:00:00 8.4 18 Este 35 Sudeste 0 913.5 -- 81
2021-02-28 09:00:00 8.1 15 Este 41 Sudeste 0 913.1 -- 81
2021-02-28 08:00:00 7.6 18 Este 39 Este 0 913 -- 81
2021-02-28 07:00:00 7.4 14 Este 34 Sudeste 0 913.1 -- 79
2021-02-28 06:00:00 7.3 17 Este 35 Este 0 913.2 -- 79
2021-02-28 05:00:00 7.2 10 Este 33 Este 0 913.3 -- 78
2021-02-28 04:00:00 7.4 16 Este 38 Este 0 913.4 -- 77
2021-02-28 03:00:00 7.6 19 Este 33 Este 0 913.9 -- 77
2021-02-28 02:00:00 7.5 5 Este 18 Este 0 914.8 -- 79
2021-02-28 01:00:00 7.2 4 Este 28 Este 0 914.8 -- 77
2021-02-28 00:00:00 7.5 7 Este 16 Este 0 915.1 -- 78
2021-02-27 23:00:00 7.2 3 Este 14 Sudeste 0 915 -- 80
2021-02-27 22:00:00 6.2 3 Sur 9 Sur 0 915.3 -- 81
2021-02-27 21:00:00 5.8 4 Noroeste 12 Sudoeste 0 915 -- 88
2021-02-27 20:00:00 6.8 5 Noroeste 8 Noroeste 0 914.9 -- 84
2021-02-27 19:00:00 10.2 2 Nordeste 11 Sudeste 0 914.8 -- 73
2021-02-27 18:00:00 11 6 Este 13 Este 0 915 -- 74
2021-02-27 17:00:00 11.6 3 Este 12 Este 0 915.1 -- 69
2021-02-27 16:00:00 12.2 6 Este 14 Sudeste 0 915.3 -- 66
2021-02-27 15:00:00 12.5 3 Este 14 Sudeste 0 915.8 -- 61
2021-02-27 14:00:00 11.9 10 Este 15 Este 0 916.6 -- 66
2021-02-27 13:00:00 12.2 7 Este 19 Este 0 917.2 -- 60
2021-02-27 12:00:00 11.8 0 Calma 11 Este 0 917.6 -- 60
2021-02-27 11:00:00 9.3 3 Nordeste 17 Sudeste 0 917.8 -- 67
2021-02-27 10:00:00 8.6 5 Sudeste 11 Sudeste 0 918.1 -- 74
2021-02-27 09:00:00 6.3 4 Oeste 7 Noroeste 0 917.8 -- 85
2021-02-27 08:00:00 6.9 5 Norte 14 Norte 0 917.6 -- 77
2021-02-27 07:00:00 7.9 3 Norte 19 Nordeste 0 917.4 -- 68
2021-02-27 06:00:00 7.8 4 Noroeste 12 Sudoeste 0 917.4 -- 71
2021-02-27 05:00:00 8 3 Sudeste 22 Este 0 917.8 -- 72
2021-02-27 04:00:00 8.1 8 Este 23 Sudeste 0 918.1 -- 71
2021-02-27 03:00:00 8 3 Oeste 19 Este 0 919 -- 78
2021-02-27 02:00:00 8 6 Sudeste 22 Sudoeste 0 919.3 -- 76
2021-02-27 01:00:00 8.1 6 Sudoeste 23 Sudoeste 0 919.3 -- 76
2021-02-27 00:00:00 8 3 Noroeste 20 Este 0 919.6 -- 73
2021-02-26 23:00:00 8 7 Este 16 Nordeste 0 919.8 -- 76
2021-02-26 22:00:00 7.7 3 Sur 11 Sur 0 919.8 -- 76
2021-02-26 21:00:00 6 5 Noroeste 9 Oeste 0 919.3 -- 85
2021-02-26 20:00:00 7.6 6 Noroeste 9 Oeste 0 919.1 -- 82
2021-02-26 19:00:00 9.8 3 Sudoeste 18 Sudeste 0 918.9 -- 73
2021-02-26 18:00:00 10.7 10 Este 19 Este 0 918.7 -- 72
2021-02-26 17:00:00 11 6 Este 21 Este 0 918.9 -- 70
2021-02-26 16:00:00 11.2 8 Este 21 Sudeste 0 919 -- 69
2021-02-26 15:00:00 10.9 9 Este 23 Este 0 919.3 -- 72
2021-02-26 14:00:00 10.9 7 Nordeste 27 Este 0 919.9 -- 72
2021-02-26 13:00:00 11.6 12 Este 35 Este 0 920.4 -- 69
2021-02-26 12:00:00 11.2 14 Este 42 Este 0 920.3 -- 72
2021-02-26 11:00:00 9.5 19 Este 33 Sudeste 0 920.5 -- 80
2021-02-26 10:00:00 8.6 12 Este 27 Sudeste 0 920.5 -- 88
2021-02-26 09:00:00 8.8 13 Este 31 Este 0 919.7 -- 85
2021-02-26 08:00:00 8.9 12 Este 39 Este 0 919.1 -- 84
2021-02-26 07:00:00 9.2 15 Este 28 Este 0 918.6 -- 81
2021-02-26 06:00:00 9.1 4 Sur 19 Sudoeste 0 918.6 -- 76
2021-02-26 05:00:00 9.5 0 Calma 16 Sudoeste 0 918.5 -- 71
2021-02-26 04:00:00 10 5 Sudoeste 34 Sudeste 0 918.5 -- 68
2021-02-26 03:00:00 10.1 12 Sudeste 32 Sur 0 918.8 -- 63
2021-02-26 02:00:00 9.8 12 Sudeste 30 Este 0 918.8 -- 72
2021-02-26 01:00:00 10 5 Este 21 Sudeste 0 918.9 -- 65
2021-02-26 00:00:00 10.1 6 Sudeste 33 Sudeste 0 919.4 -- 63
2021-02-25 23:00:00 9.8 3 Norte 19 Nordeste 0 919.6 -- 66
2021-02-25 22:00:00 10.1 8 Nordeste 24 Norte 0 919.5 -- 65
2021-02-25 21:00:00 10.3 8 Este 25 Este 0 919.2 -- 64
2021-02-25 20:00:00 10.3 10 Este 21 Este 0 919.2 -- 69
2021-02-25 19:00:00 10.9 3 Sudeste 15 Sur 0 919.2 -- 72
2021-02-25 18:00:00 11.8 7 Este 17 Este 0 919.3 -- 69
2021-02-25 17:00:00 12.5 9 Este 18 Este 0 919.3 -- 67
2021-02-25 16:00:00 13.3 6 Este 13 Sudeste 0 919.4 -- 66
2021-02-25 15:00:00 13.5 5 Este 15 Sudeste 0 919.5 -- 64
2021-02-25 14:00:00 12.8 8 Este 24 Este 0 920.1 -- 66
2021-02-25 13:00:00 12.2 10 Este 29 Sudeste 0 920.8 -- 71
2021-02-25 12:00:00 11.7 6 Este 28 Este 0 921.4 -- 74
2021-02-25 11:00:00 12.2 9 Sudeste 27 Este 0 921.3 -- 72
2021-02-25 10:00:00 10.2 9 Sudeste 28 Este 0 921.4 -- 79
2021-02-25 09:00:00 9 7 Este 36 Este 0 921.2 -- 82
2021-02-25 08:00:00 8.8 16 Este 39 Este 0 920 -- 82
2021-02-25 07:00:00 9 6 Este 25 Este 0 920.1 -- 82
2021-02-25 06:00:00 8.9 8 Este 27 Este 0 920 -- 82
2021-02-25 05:00:00 9.1 5 Sudeste 23 Este 0 919.6 -- 78
2021-02-25 04:00:00 9.2 6 Este 24 Este 0 919.9 -- 76
2021-02-25 03:00:00 9.1 8 Este 32 Nordeste 0 920 -- 74
2021-02-25 02:00:00 8.6 9 Este 34 Este 0 920.7 -- 76
2021-02-25 01:00:00 8.6 15 Sudeste 44 Este 0 921.3 -- 78
2021-02-25 00:00:00 9 15 Este 32 Este 0 921.4 -- 70
2021-02-24 23:00:00 8.7 17 Sudeste 36 Este 0 921.8 -- 73
2021-02-24 22:00:00 9.1 6 Este 33 Este 0 921.4 -- 69
2021-02-24 21:00:00 10.8 15 Este 38 Este 0 920.7 -- 54
2021-02-24 20:00:00 10.8 13 Este 42 Este 0 920.4 -- 56
2021-02-24 19:00:00 11.4 18 Este 43 Este 0 920.2 -- 53
2021-02-24 18:00:00 10.6 14 Este 35 Este 0 920.8 -- 67
2021-02-24 17:00:00 11.8 17 Este 45 Sudeste 0 920.8 -- 66
2021-02-24 16:00:00 11.9 21 Este 43 Este 0 920.9 -- 68
2021-02-24 15:00:00 11.7 23 Este 49 Este 0 921.3 -- 68
2021-02-24 14:00:00 11.7 24 Este 49 Este 0 922.2 -- 69
2021-02-24 13:00:00 10.7 20 Este 49 Este 0 923.2 -- 72
2021-02-24 12:00:00 9.9 19 Este 48 Nordeste 0 923.6 -- 75
2021-02-24 11:00:00 10 15 Este 51 Este 0 923.5 -- 73
2021-02-24 10:00:00 9.8 21 Este 51 Sudeste 0 922.9 -- 71
2021-02-24 09:00:00 9.5 27 Este 57 Este 0 922.8 -- 70
2021-02-24 08:00:00 8.9 28 Este 64 Sudeste 0 922.6 -- 75
2021-02-24 07:00:00 9.1 30 Este 60 Este 0 922.4 -0.4 74
2021-02-24 06:00:00 9 29 Este 55 Sudeste 0 922.6 -1 76
2021-02-24 05:00:00 8.9 28 Este 57 Sudeste 0 922.5 -- 78
2021-02-24 04:00:00 8.7 28 Este 56 Este 0 922.8 -- 76
2021-02-24 03:00:00 8 29 Este 57 Este 0 923.6 -- 76
2021-02-24 02:00:00 7.8 21 Este 45 Sudeste 0 924 -1.2 76
2021-02-24 01:00:00 7.3 17 Este 39 Este 0 924.5 -- 72
2021-02-24 00:00:00 7.1 15 Este 35 Este 0 924.9 -- 67
2021-02-23 23:00:00 7.4 9 Este 23 Sur 0 925.2 -- 65
2021-02-23 22:00:00 7.8 4 Este 31 Este 0 925.3 -- 70
2021-02-23 21:00:00 7.5 10 Este 19 Nordeste 0 924.9 0.6 70
2021-02-23 20:00:00 8 6 Este 20 Sudeste 0 924.8 -- 66
2021-02-23 19:00:00 8.9 7 Este 18 Sudeste 0 924.4 -- 68
2021-02-23 18:00:00 9.9 9 Sudeste 19 Este 0 924.3 -- 62
2021-02-23 17:00:00 11.7 10 Sudeste 21 Sudeste 0 923.9 -- 57
2021-02-23 16:00:00 12.7 12 Este 23 Este 0 924.1 -- 50
2021-02-23 15:00:00 13.5 9 Este 22 Sudeste 0 924.1 -- 46
2021-02-23 14:00:00 12.7 10 Este 24 Este 0 924.4 -- 45
2021-02-23 13:00:00 11.7 15 Este 29 Sudeste 0 924.8 -- 45
2021-02-23 12:00:00 11.9 9 Este 25 Este 0 924.7 -- 45
2021-02-23 11:00:00 11.2 9 Este 20 Este 0 924.3 -- 44
2021-02-23 10:00:00 9.1 6 Este 14 Este 0 923.8 -- 54
2021-02-23 09:00:00 3.4 4 Noroeste 9 Noroeste 0 923.2 -- 90
2021-02-23 08:00:00 2.1 4 Noroeste 9 Noroeste 0 922.5 -- 92
2021-02-23 07:00:00 2.1 7 Noroeste 9 Noroeste 0 922 -- 94
2021-02-23 06:00:00 2.6 5 Oeste 8 Noroeste 0 921.8 -- 96
2021-02-23 05:00:00 2.9 4 Oeste 9 Noroeste 0 921.7 -- 96
2021-02-23 04:00:00 2.3 6 Noroeste 9 Noroeste 0 921.5 -- 95
2021-02-23 03:00:00 2.4 6 Noroeste 9 Noroeste 0 921.5 -- 94
2021-02-23 02:00:00 2.1 7 Noroeste 10 Noroeste 0 921.4 -- 92
2021-02-23 01:00:00 2.4 8 Noroeste 10 Noroeste 0 921.2 -- 90
2021-02-23 00:00:00 2.9 7 Noroeste 11 Noroeste 0 921 -- 89
2021-02-22 23:00:00 2.8 6 Noroeste 12 Noroeste 0 920.5 -- 89
2021-02-22 22:00:00 4.3 5 Noroeste 11 Oeste 0 920 -- 89
2021-02-22 21:00:00 5.2 7 Noroeste 12 Oeste 0 919.3 -- 89
2021-02-22 20:00:00 5.5 6 Noroeste 11 Oeste 0 919 -- 86
2021-02-22 19:00:00 6.9 4 Noroeste 11 Oeste 0 918.1 -- 78
2021-02-22 18:00:00 7.4 6 Noroeste 17 Oeste 0 917.4 -- 67
2021-02-22 17:00:00 9.1 5 Oeste 18 Noroeste 0 917.3 -- 63
2021-02-22 16:00:00 9.2 6 Oeste 20 Oeste 0 916.7 -- 63
2021-02-22 15:00:00 10 7 Oeste 19 Oeste 0 916.2 -- 58
2021-02-22 14:00:00 9.1 9 Oeste 22 Noroeste 0 916.7 -- 58
2021-02-22 13:00:00 9 7 Noroeste 17 Oeste 0 916.6 -- 62
2021-02-22 12:00:00 8.8 5 Oeste 15 Noroeste 0 916.3 -- 63
2021-02-22 11:00:00 8.1 5 Noroeste 21 Noroeste 0 915.9 -- 62
2021-02-22 10:00:00 7 8 Noroeste 22 Noroeste 0 915.5 -- 62
2021-02-22 09:00:00 5.2 6 Noroeste 21 Noroeste 0 914.9 -- 66
2021-02-22 08:00:00 3.8 6 Noroeste 22 Noroeste 0 914 -- 71
2021-02-22 07:00:00 3.8 8 Noroeste 27 Noroeste 0 913.6 1.4 68
2021-02-22 06:00:00 3.9 8 Noroeste 29 Noroeste 0 913.1 -- 71
2021-02-22 05:00:00 4.1 10 Noroeste 30 Noroeste 0 912.5 -- 74
2021-02-22 04:00:00 4.4 14 Noroeste 29 Noroeste 0 912.2 -- 82
2021-02-22 03:00:00 4.3 10 Noroeste 27 Norte 0 912.2 -- 83
2021-02-22 02:00:00 4.3 10 Oeste 27 Sudoeste 0 911.6 -- 85
2021-02-22 01:00:00 4.4 7 Oeste 28 Sudoeste 0 911.2 -- 89
2021-02-22 00:00:00 4.3 9 Noroeste 21 Oeste 0 910.5 -- 92
2021-02-21 23:00:00 4.3 8 Noroeste 27 Oeste 0 909.8 -- 89
2021-02-21 22:00:00 5.2 10 Oeste 28 Noroeste 0.2 909.1 2.9 91
2021-02-21 21:00:00 5.6 11 Noroeste 28 Oeste 0 908.1 -- 90
2021-02-21 20:00:00 5.1 9 Oeste 32 Sudoeste 0.1 907.4 -- 91
2021-02-21 19:00:00 4.4 10 Oeste 40 Oeste 4.7 906.2 -- 89
2021-02-21 18:00:00 4.3 10 Oeste 31 Noroeste 3.1 905.2 -- 93
2021-02-21 17:00:00 5.3 11 Oeste 29 Oeste 2.7 904.1 -- 93
2021-02-21 16:00:00 5.7 10 Oeste 26 Oeste 2.6 902.8 -- 93
2021-02-21 15:00:00 5.5 8 Oeste 27 Noroeste 0.8 901.7 -- 95
2021-02-21 14:00:00 6 9 Oeste 24 Oeste 4.8 902 -- 93
2021-02-21 13:00:00 6.2 9 Oeste 29 Oeste 6.3 902.1 -- 93
2021-02-21 12:00:00 6.7 9 Oeste 44 Noroeste 5.2 901.9 -- 92
2021-02-21 11:00:00 7.9 7 Oeste 24 Sudoeste 5.6 902 -- 90
2021-02-21 10:00:00 8.5 5 Oeste 31 Oeste 1.8 902.6 -- 88
2021-02-21 09:00:00 9.5 10 Oeste 31 Sur 0 902.1 -- 76
2021-02-21 08:00:00 9.7 9 Oeste 32 Oeste 0 902 -- 71
2021-02-21 07:00:00 9.3 12 Oeste 26 Oeste 0 902.6 -- 73
2021-02-21 06:00:00 9.4 6 Oeste 20 Sudoeste 0 903.6 -- 73
2021-02-21 05:00:00 10 7 Oeste 20 Oeste 0 904.4 -- 74
2021-02-21 04:00:00 11.4 6 Oeste 26 Oeste 0 904.7 -- 56
2021-02-21 03:00:00 12.2 3 Sur 25 Sur 0 904.7 -- 43
2021-02-21 02:00:00 11.8 9 Sudeste 24 Este 0 905.2 -- 51
2021-02-21 01:00:00 14.1 2 Sudoeste 22 Sur 0 905.7 -- 30
2021-02-21 00:00:00 15 4 Sur 27 Sur 0 905.8 -- 27
2021-02-20 23:00:00 14.8 6 Sur 28 Este 0 906 -- 28
2021-02-20 22:00:00 14.5 6 Sudoeste 31 Sur 0 906.4 -- 31
2021-02-20 21:00:00 14.5 2 Sur 18 Noroeste 0 906.9 -- 24
2021-02-20 20:00:00 13.1 0 Calma 17 Sudeste 0 907.1 -- 47
2021-02-20 19:00:00 13.9 3 Este 24 Este 0 907.9 -- 49
2021-02-20 18:00:00 15.8 4 Este 24 Sudoeste 0 908 -- 42
2021-02-20 17:00:00 16.3 5 Sudeste 23 Sur 0 908.5 -- 37
2021-02-20 16:00:00 16.6 5 Sur 24 Sur 0 908.9 -- 33
2021-02-20 15:00:00 17.5 5 Oeste 24 Sudoeste 0 909.4 -- 25
2021-02-20 14:00:00 18.4 0 Calma 19 Sur 0 910.4 -- 25
2021-02-20 13:00:00 17.4 8 Sudoeste 24 Sudoeste 0 911.1 -- 29
2021-02-20 12:00:00 17.6 5 Oeste 30 Oeste 0 911.7 -- 33
2021-02-20 11:00:00 16.3 4 Oeste 23 Noroeste 0 911.7 -- 34
2021-02-20 10:00:00 14.6 3 Oeste 22 Sudeste 0 911.9 -- 36
2021-02-20 09:00:00 13.8 5 Oeste 24 Sudoeste 0 911.7 0.5 23
2021-02-20 08:00:00 13.1 5 Oeste 26 Sur 0 911.4 -- 22
2021-02-20 07:00:00 13.1 3 Oeste 20 Sur 0 911.4 -- 25
2021-02-20 06:00:00 13.2 5 Oeste 19 Sur 0 911.2 -- 28
2021-02-20 05:00:00 13.5 5 Oeste 24 Oeste 0 911.5 -- 32
2021-02-20 04:00:00 13.3 4 Oeste 23 Sur 0 911.8 -0.8 32
2021-02-20 03:00:00 13.5 4 Oeste 27 Sur 0 911.7 -- 36
2021-02-20 02:00:00 14 5 Sudoeste 24 Sudoeste 0 912.3 -- 38
2021-02-20 01:00:00 13.6 3 Noroeste 23 Sudeste 0 912.6 -- 35
2021-02-20 00:00:00 11.8 4 Sudeste 13 Sudeste 0 913.6 -- 43
2021-02-19 23:00:00 11.5 7 Sudeste 13 Sudeste 0 914 -0.2 42
2021-02-19 22:00:00 13 5 Sudeste 22 Sudoeste 0 914 -- 35
2021-02-19 21:00:00 12.1 4 Sudeste 17 Este 0 913.8 -- 38
2021-02-19 20:00:00 9.7 6 Noroeste 10 Noroeste 0 914.2 -- 76
2021-02-19 19:00:00 12.4 4 Oeste 13 Oeste 0 914.1 -- 68
2021-02-19 18:00:00 14.2 7 Oeste 17 Oeste 0 914.3 -- 47
2021-02-19 17:00:00 15.7 8 Oeste 19 Oeste 0 914.2 -1 37
2021-02-19 16:00:00 17.3 7 Oeste 18 Oeste 0 914.2 -- 32
2021-02-19 15:00:00 18.3 3 Sur 22 Este 0 914.5 -- 25
2021-02-19 14:00:00 18.2 4 Sur 22 Sur 0 915.2 -- 26
2021-02-19 13:00:00 17.3 8 Sur 19 Sudoeste 0 915.5 -- 25
2021-02-19 12:00:00 17.9 5 Sudoeste 23 Este 0 915.7 -- 20
2021-02-19 11:00:00 17.3 6 Sudoeste 19 Sur 0 915.7 -- 21
2021-02-19 10:00:00 15.4 3 Sur 14 Sur 0 915.6 -- 26
2021-02-19 09:00:00 9.9 7 Noroeste 16 Noroeste 0 915.5 -- 39
2021-02-19 08:00:00 7 10 Noroeste 15 Noroeste 0 915.3 -- 46
2021-02-19 07:00:00 7.1 9 Noroeste 14 Noroeste 0 915.3 -- 46
2021-02-19 06:00:00 7.7 8 Oeste 13 Oeste 0 915.3 -- 46
2021-02-19 05:00:00 7.7 7 Oeste 12 Oeste 0 915.2 -- 48
2021-02-19 04:00:00 6.9 8 Oeste 12 Oeste 0 915.4 -- 51
2021-02-19 03:00:00 7.1 9 Noroeste 13 Noroeste 0 915.7 -- 49
2021-02-19 02:00:00 6.9 8 Noroeste 12 Noroeste 0 915.8 -- 52
2021-02-19 01:00:00 6.7 9 Noroeste 13 Noroeste 0 915.8 -- 53
2021-02-19 00:00:00 7 10 Noroeste 13 Noroeste 0 916.2 -- 54
2021-02-18 23:00:00 6.8 10 Noroeste 13 Noroeste 0 916.5 -- 55
2021-02-18 22:00:00 6.4 7 Noroeste 11 Noroeste 0 916.4 -- 61
2021-02-18 21:00:00 7.1 7 Oeste 11 Oeste 0 916.3 -- 60
2021-02-18 20:00:00 8.2 7 Noroeste 10 Noroeste 0 916.1 -- 67
2021-02-18 19:00:00 10 6 Noroeste 9 Noroeste 0 915.5 -- 70
2021-02-18 18:00:00 12.6 0 Calma 7 Sudeste 0 915.3 -- 71
2021-02-18 17:00:00 15.2 4 Este 9 Sudeste 0 915.1 -- 69
2021-02-18 16:00:00 16 4 Este 12 Este 0 914.9 -- 68
2021-02-18 15:00:00 15.6 6 Este 11 Sudeste 0 915.2 -- 66
2021-02-18 14:00:00 15.3 5 Este 11 Este 0 915.4 -- 65
2021-02-18 13:00:00 15.1 5 Este 11 Sudeste 0 915.8 -- 64
2021-02-18 12:00:00 15.1 5 Este 11 Sudeste 0 915.9 -- 58
2021-02-18 11:00:00 14.4 2 Sudeste 12 Este 0 915.7 -- 50
2021-02-18 10:00:00 12.5 3 Oeste 10 Noroeste 0 915.3 -- 51
2021-02-18 09:00:00 8.3 6 Noroeste 12 Noroeste 0 915.2 -- 62
2021-02-18 08:00:00 6.2 8 Noroeste 12 Noroeste 0 914.7 -- 65
2021-02-18 07:00:00 5.8 8 Noroeste 12 Noroeste 0 914.6 -- 66
2021-02-18 06:00:00 5.9 7 Noroeste 11 Noroeste 0 914.7 -- 68
2021-02-18 05:00:00 6.4 8 Noroeste 11 Noroeste 0 914.6 -- 66
2021-02-18 04:00:00 7.3 8 Noroeste 12 Noroeste 0 914.7 -- 65
2021-02-18 03:00:00 7.2 9 Noroeste 12 Noroeste 0 915 -- 65
2021-02-18 02:00:00 7.3 8 Noroeste 12 Noroeste 0 915.2 -- 65
2021-02-18 01:00:00 7.1 9 Noroeste 12 Noroeste 0 915.4 -- 61
2021-02-18 00:00:00 7.2 8 Noroeste 12 Noroeste 0 915.8 -- 63
2021-02-17 23:00:00 8.1 8 Noroeste 12 Noroeste 0 916.3 -- 63
2021-02-17 22:00:00 8.7 9 Noroeste 13 Noroeste 0 916.2 -- 65
2021-02-17 21:00:00 8.5 9 Noroeste 12 Noroeste 0 916.3 -- 72
2021-02-17 20:00:00 9.6 8 Noroeste 11 Noroeste 0 916.3 -- 72
2021-02-17 19:00:00 11.8 6 Noroeste 9 Noroeste 0 916 -- 72
2021-02-17 18:00:00 15.6 0 Calma 6 Este 0 916.2 -- 61
2021-02-17 17:00:00 19.3 2 Sudeste 14 Sudeste 0 916.5 -- 44
2021-02-17 16:00:00 19.6 8 Este 19 Este 0 916.4 -- 39
2021-02-17 15:00:00 20.3 9 Este 16 Este 0 916.8 -- 33
2021-02-17 14:00:00 20.6 8 Este 16 Este 0 917.6 -- 26
2021-02-17 13:00:00 20.5 6 Este 15 Sudeste 0 918.5 -- 22
2021-02-17 12:00:00 19.9 6 Sudeste 9 Sudeste 0 918.9 -- 22
2021-02-17 11:00:00 17.2 0 Calma 6 Oeste 0 919.1 -- 33
2021-02-17 10:00:00 13 4 Noroeste 10 Noroeste 0 919.2 -- 45
2021-02-17 09:00:00 8.8 8 Noroeste 13 Noroeste 0 919.1 -- 57
2021-02-17 08:00:00 8.2 9 Noroeste 13 Noroeste 0 919.1 -- 51
2021-02-17 07:00:00 8.1 9 Noroeste 14 Noroeste 0 919.1 -- 53
2021-02-17 06:00:00 8.5 10 Noroeste 13 Noroeste 0 919.1 -- 50
2021-02-17 05:00:00 8.1 9 Noroeste 12 Noroeste 0 919.3 -- 52
2021-02-17 04:00:00 8.3 9 Noroeste 13 Noroeste 0 919.9 -- 50
2021-02-17 03:00:00 9 8 Oeste 13 Noroeste 0 920.2 -- 48
2021-02-17 02:00:00 8.8 8 Oeste 14 Noroeste 0 920.5 -- 51
2021-02-17 01:00:00 9.7 10 Noroeste 15 Noroeste 0 920.8 -- 47
2021-02-17 00:00:00 8.7 9 Noroeste 12 Noroeste 0 921.1 -- 53
2021-02-16 23:00:00 8 8 Noroeste 12 Noroeste 0 921.2 -- 59
2021-02-16 22:00:00 7.9 9 Noroeste 11 Noroeste 0 921.4 -- 68
2021-02-16 21:00:00 8.2 6 Oeste 10 Noroeste 0 921.3 -- 76
2021-02-16 20:00:00 8.9 6 Noroeste 10 Noroeste 0 921.2 -- 75
2021-02-16 19:00:00 10.7 8 Noroeste 10 Noroeste 0 920.8 -- 73
2021-02-16 18:00:00 14.7 3 Sudoeste 6 Sur 0 921 -- 58
2021-02-16 17:00:00 18.2 4 Sudeste 11 Este 0 921.2 -- 45
2021-02-16 16:00:00 19 5 Este 12 Este 0 921.5 -- 40
2021-02-16 15:00:00 19.4 6 Este 14 Sudeste 0 921.7 -- 37
2021-02-16 14:00:00 18.7 6 Sudeste 13 Este 0 922.4 -- 40
2021-02-16 13:00:00 17.2 5 Sudeste 13 Este 0 923.2 -- 45
2021-02-16 12:00:00 17.1 6 Sudeste 10 Sudeste 0 923.5 -- 39
2021-02-16 11:00:00 16 3 Sudeste 8 Este 0 923.3 -- 42
2021-02-16 10:00:00 14 3 Este 6 Oeste 0 923 -- 42
2021-02-16 09:00:00 10.1 4 Oeste 11 Noroeste 0 922.1 -- 49
2021-02-16 08:00:00 7.8 8 Noroeste 13 Oeste 0 921.2 -- 50
2021-02-16 07:00:00 8.6 5 Noroeste 12 Noroeste 0 921.2 -- 48
2021-02-16 06:00:00 10.1 7 Noroeste 11 Noroeste 0 921.5 -- 43
2021-02-16 05:00:00 8.9 6 Noroeste 12 Noroeste 0 921.7 -- 45
2021-02-16 04:00:00 7.7 6 Noroeste 12 Noroeste 0 922.2 -- 48
2021-02-16 03:00:00 7.3 6 Noroeste 13 Noroeste 0 922.5 -- 51
2021-02-16 02:00:00 6.5 9 Noroeste 16 Noroeste 0 922.9 -- 53
2021-02-16 01:00:00 6.5 8 Noroeste 13 Noroeste 0 923 -- 51
2021-02-16 00:00:00 6.9 6 Oeste 15 Sudoeste 0 923.3 -- 50
2021-02-15 23:00:00 7.1 9 Noroeste 13 Noroeste 0 923.2 -- 51
2021-02-15 22:00:00 7.4 8 Noroeste 14 Noroeste 0 923 -- 51
2021-02-15 21:00:00 7.5 10 Noroeste 14 Noroeste 0 922.9 -- 52
2021-02-15 20:00:00 7.6 9 Noroeste 16 Noroeste 0 922.7 -- 59
2021-02-15 19:00:00 9.4 8 Noroeste 12 Noroeste 0 922.5 -- 70
2021-02-15 18:00:00 12.9 3 Oeste 7 Noroeste 0 922.7 -- 56
2021-02-15 17:00:00 17.5 3 Este 12 Este 0 923 -- 39
2021-02-15 16:00:00 18.3 3 Este 14 Sur 0 922.9 -- 35
2021-02-15 15:00:00 16.3 9 Sudeste 22 Sudeste 0 923.1 -- 32
2021-02-15 14:00:00 17.1 6 Este 26 Este 0 923.7 -- 38
2021-02-15 13:00:00 15.7 9 Sudeste 23 Sudeste 0 924.2 -- 41
2021-02-15 12:00:00 15.3 5 Este 31 Sur 0 924.2 -- 44
2021-02-15 11:00:00 13.7 9 Sur 33 Sur 0 924.1 -- 42
2021-02-15 10:00:00 13.2 9 Sudeste 30 Sudoeste 0 923.8 -- 42
2021-02-15 09:00:00 12.1 12 Sur 33 Sudoeste 0 923.3 -- 43
2021-02-15 08:00:00 10.7 12 Sur 35 Sudoeste 0 922.8 -- 45
2021-02-15 07:00:00 10.5 9 Sur 27 Sudoeste 0 922.7 -- 47
2021-02-15 06:00:00 10.8 11 Sur 30 Sudoeste 0 922.4 -- 47
2021-02-15 05:00:00 10.5 10 Sur 33 Sur 0 922.6 -- 46
2021-02-15 04:00:00 10.6 12 Sur 32 Sur 0 922.7 -- 45
2021-02-15 03:00:00 10.5 9 Sur 32 Sur 0 923.1 -- 45
2021-02-15 02:00:00 10.5 10 Sur 35 Sur 0 923.4 -- 44
2021-02-15 01:00:00 10.7 12 Sur 34 Sur 0 923.6 -- 45
2021-02-15 00:00:00 11 9 Sur 33 Sur 0 923.6 -- 45
2021-02-14 23:00:00 11.5 11 Sur 33 Sur 0 923.7 -- 43
2021-02-14 22:00:00 12 8 Sur 31 Sur 0 923.5 -- 40
2021-02-14 21:00:00 11.8 6 Sudeste 30 Sur 0 923 -- 41
2021-02-14 20:00:00 11.5 2 Sudeste 19 Sur 0 922.9 -- 44
2021-02-14 19:00:00 12 5 Sudeste 20 Sur 0 922.8 0.6 43
2021-02-14 18:00:00 13.8 2 Sudeste 12 Sur 0 922.4 0.5 42
2021-02-14 17:00:00 15.6 4 Este 20 Este 0 922.3 -- 41
2021-02-14 16:00:00 16.1 11 Sudeste 20 Este 0 922.2 -- 37
2021-02-14 15:00:00 16.5 11 Este 22 Este 0 921.9 -- 36
2021-02-14 14:00:00 16.7 11 Este 23 Este 0 922.2 -- 34
2021-02-14 13:00:00 17.4 10 Este 22 Este 0 922.3 -- 35
2021-02-14 12:00:00 17.7 8 Este 15 Este 0 922.2 -- 34
2021-02-14 11:00:00 16.2 4 Este 8 Nordeste 0 921.8 -- 36
2021-02-14 10:00:00 11.3 4 Noroeste 13 Noroeste 0 921.5 -- 54
2021-02-14 09:00:00 7.7 9 Noroeste 14 Noroeste 0 920.9 -- 60
2021-02-14 08:00:00 6 10 Noroeste 14 Noroeste 0 920.6 -- 58
2021-02-14 07:00:00 4.6 9 Noroeste 13 Noroeste 0 920.3 -- 60
2021-02-14 06:00:00 4.6 10 Noroeste 14 Noroeste 0 920.2 -- 51
2021-02-14 05:00:00 4.4 8 Noroeste 14 Noroeste 0 920.6 -- 56
2021-02-14 04:00:00 4.6 10 Noroeste 13 Noroeste 0 920.9 -- 53
2021-02-14 03:00:00 4.6 8 Noroeste 14 Noroeste 0 921.3 -- 53
2021-02-14 02:00:00 4.5 10 Noroeste 13 Noroeste 0 921.6 -- 63
2021-02-14 01:00:00 4.4 8 Noroeste 13 Noroeste 0 921.5 -- 78
2021-02-14 00:00:00 5.5 5 Noroeste 10 Noroeste 0 922.3 -- 62
2021-02-13 23:00:00 4.5 7 Noroeste 12 Noroeste 0 922.1 -- 54
2021-02-13 22:00:00 4.2 8 Noroeste 13 Noroeste 0 921.7 -- 54
2021-02-13 21:00:00 5.4 8 Noroeste 12 Noroeste 0 921.5 -- 60
2021-02-13 20:00:00 6.3 8 Noroeste 12 Noroeste 0 921.3 -- 63
2021-02-13 19:00:00 7.9 9 Noroeste 12 Noroeste 0 920.8 -- 61
2021-02-13 18:00:00 11.8 6 Oeste 8 Oeste 0 920.6 -- 56
2021-02-13 17:00:00 15.6 4 Sur 11 Sudeste 0 920.9 -- 43
2021-02-13 16:00:00 16.8 4 Sudeste 9 Este 0 920.8 -- 30
2021-02-13 15:00:00 16.7 5 Sudeste 12 Sudeste 0 920.9 -- 22
2021-02-13 14:00:00 17.3 4 Sudeste 8 Sudeste 0 921.2 -- 18
2021-02-13 13:00:00 16.7 5 Sudeste 14 Sudeste 0 921.8 -- 24
2021-02-13 08:00:00 3.4 5 Noroeste 12 Noroeste 0 920.8 0.5 88
2021-02-13 07:00:00 2.8 7 Noroeste 11 Oeste 0 920.5 0.2 96
2021-02-13 06:00:00 3.2 7 Noroeste 10 Noroeste 0 920.3 0 96
2021-02-13 05:00:00 3.2 3 Noroeste 10 Noroeste 0 920.3 0.1 94
2021-02-13 04:00:00 3.2 7 Oeste 11 Noroeste 0 920.3 0 93
2021-02-13 03:00:00 4 6 Noroeste 10 Noroeste 0 920.3 0 91
2021-02-13 02:00:00 5.5 4 Noroeste 11 Sudeste 0 920.2 0 88
2021-02-13 01:00:00 7 3 Sur 10 Sur 0 920.3 0 83
2021-02-13 00:00:00 8.4 5 Sudeste 15 Este 0 920.3 0.3 76
2021-02-12 23:00:00 9 0 Calma 16 Norte 0 920.2 0.6 69
2021-02-12 22:00:00 9.6 4 Noroeste 14 Noroeste 0 920.3 1.2 65
2021-02-12 21:00:00 9.6 3 Noroeste 15 Oeste 0 920 1.2 62
2021-02-12 20:00:00 9.4 4 Noroeste 18 Noroeste 0 919.6 1 61
2021-02-12 19:00:00 9.8 7 Noroeste 20 Oeste 0 919.1 0.3 64
2021-02-12 18:00:00 11 0 Calma 14 Noroeste 0 918.8 0.1 72
2021-02-12 17:00:00 12.6 7 Oeste 20 Oeste 0 918.6 -0.3 65
2021-02-12 16:00:00 12.8 6 Noroeste 32 Norte 0 918.8 -0.5 60
2021-02-12 15:00:00 13.4 8 Noroeste 23 Noroeste 0 918.7 -0.4 59
2021-02-12 14:00:00 13.1 7 Noroeste 21 Noroeste 0 918.9 0 66
2021-02-12 13:00:00 12.9 8 Noroeste 19 Noroeste 0 919.3 0.7 70
2021-02-12 12:00:00 12.5 7 Oeste 21 Noroeste 0 919.1 1.2 73
2021-02-12 11:00:00 12.6 8 Noroeste 21 Oeste 0.1 918.9 1.4 83
2021-02-12 10:00:00 10.4 7 Noroeste 17 Oeste 1.7 918.6 1.4 96
2021-02-12 09:00:00 10 6 Oeste 18 Oeste 1.5 917.9 -- 97
2021-02-12 08:00:00 9.7 7 Oeste 20 Sudoeste 1.8 917.5 -- 97
2021-02-12 07:00:00 9.7 7 Oeste 25 Noroeste 1.3 917.2 -- 96
2021-02-12 06:00:00 9.6 6 Oeste 17 Oeste 0.1 917.2 -- 96
2021-02-12 05:00:00 9.6 6 Oeste 18 Oeste 0.3 917.1 -- 96
2021-02-12 04:00:00 9.6 6 Oeste 18 Sudoeste 0.1 917.2 -- 96
2021-02-12 03:00:00 9.6 5 Oeste 18 Oeste 0.1 917.2 -- 97
2021-02-12 02:00:00 9.3 8 Noroeste 16 Oeste 0 917.1 -- 95
2021-02-12 01:00:00 8.8 6 Noroeste 12 Noroeste 0 916.8 -- 95
2021-02-12 00:00:00 8.3 6 Noroeste 11 Noroeste 0 916.9 -- 97
2021-02-11 23:00:00 7 5 Noroeste 11 Noroeste 0 916.9 -- 96
2021-02-11 22:00:00 7.9 6 Noroeste 10 Noroeste 0 916.9 -- 94
2021-02-11 21:00:00 9.5 4 Noroeste 7 Noroeste 0 916.9 -- 94
2021-02-11 20:00:00 10.2 3 Oeste 8 Oeste 0 916.8 -- 94
2021-02-11 19:00:00 11.2 3 Oeste 10 Noroeste 0 916.7 -- 92
2021-02-11 18:00:00 11.7 5 Noroeste 12 Noroeste 0 916.2 -- 89
2021-02-11 17:00:00 11.9 0 Calma 10 Oeste 0 916 -- 95
2021-02-11 16:00:00 12.1 0 Calma 8 Sudeste 0 916 -- 95
2021-02-11 15:00:00 12.4 3 Este 10 Sudeste 0 916 -- 94
2021-02-11 14:00:00 12.5 4 Este 10 Este 0 916.7 -- 94
2021-02-11 13:00:00 12.7 4 Sudeste 15 Oeste 0 917.1 -- 91
2021-02-11 12:00:00 11.8 0 Calma 8 Sudeste 0 917.2 -- 95
2021-02-11 11:00:00 10.8 3 Este 6 Este 0 917.3 -- 97
2021-02-11 10:00:00 10.6 0 Calma 13 Noroeste 0 916.9 -- 95
2021-02-11 09:00:00 9.6 7 Noroeste 12 Oeste 0 916.4 -- 98
2021-02-11 08:00:00 9.5 0 Calma 5 Sudoeste 0.1 916.2 -- 98
2021-02-11 07:00:00 9.9 0 Calma 6 Noroeste 0.2 916.4 -- 97
2021-02-11 06:00:00 10.1 2 Oeste 11 Norte 0.2 916.3 -- 98
2021-02-11 05:00:00 10.3 2 Noroeste 10 Sur 0.2 916.2 -- 98
2021-02-11 04:00:00 10.2 5 Norte 18 Noroeste 0.2 916.5 -- 97
2021-02-11 03:00:00 10.1 6 Noroeste 14 Noroeste 0.6 916.5 -- 98
2021-02-11 02:00:00 10.1 6 Oeste 14 Oeste 1.2 916.7 -- 98
2021-02-11 01:00:00 10.1 7 Oeste 18 Oeste 0.6 916.4 -- 98
2021-02-11 00:00:00 10 7 Oeste 17 Oeste 0.5 916.3 -- 98
2021-02-10 23:00:00 9.8 7 Oeste 21 Oeste 0.1 916.1 -- 98
2021-02-10 22:00:00 10 12 Oeste 27 Noroeste 0.4 915.5 -- 98
2021-02-10 21:00:00 10 13 Oeste 28 Oeste 4.2 915.1 -- 97
2021-02-10 20:00:00 9.9 11 Oeste 24 Oeste 6.5 915 -- 97
2021-02-10 19:00:00 10.3 10 Oeste 30 Oeste 10.5 914.6 -- 96
2021-02-10 18:00:00 10.5 13 Oeste 37 Sudoeste 14.1 913.8 -- 96
2021-02-10 17:00:00 10.8 10 Oeste 25 Oeste 14.6 913.3 -- 96
2021-02-10 16:00:00 10.9 9 Oeste 31 Noroeste 12.9 913 -- 96
2021-02-10 15:00:00 10.9 10 Oeste 30 Oeste 16 912.9 -- 96
2021-02-10 14:00:00 10.9 8 Oeste 26 Oeste 11.4 913 -- 96
2021-02-10 13:00:00 10.9 10 Oeste 31 Oeste 8.2 912.9 -- 96
2021-02-10 12:00:00 10.8 12 Oeste 35 Oeste 12 912.4 -- 96
2021-02-10 11:00:00 10.1 10 Oeste 27 Noroeste 13.1 911.5 -- 97
2021-02-10 10:00:00 9.5 11 Oeste 41 Oeste 6.8 910.9 -- 97
2021-02-10 09:00:00 10 13 Oeste 50 Noroeste 6 910.2 -- 97
2021-02-10 08:00:00 9.5 13 Oeste 39 Noroeste 10.4 909.5 -- 96
2021-02-10 07:00:00 9.4 10 Oeste 49 Oeste 3.5 909 -- 98
2021-02-10 06:00:00 9.3 13 Oeste 43 Oeste 1.1 908.9 -- 98
2021-02-10 05:00:00 8.9 11 Oeste 31 Oeste 4.7 908.9 -- 96
2021-02-10 04:00:00 8.9 6 Oeste 26 Oeste 3.4 908.7 -- 96
2021-02-10 03:00:00 8.2 10 Oeste 50 Oeste 0.2 909.1 -- 96
2021-02-10 02:00:00 8.1 11 Oeste 39 Noroeste 5.6 909.1 -- 95
2021-02-10 01:00:00 8.8 10 Oeste 33 Oeste 5.8 909 -- 96
2021-02-10 00:00:00 8.8 13 Oeste 42 Oeste 3 908.7 -- 96
2021-02-09 23:00:00 8.6 15 Oeste 33 Noroeste 14.1 908.5 -- 94
2021-02-09 22:00:00 9.4 6 Oeste 30 Oeste 4.9 907.9 -- 97
2021-02-09 21:00:00 8.9 12 Oeste 48 Sudoeste 2.2 907.8 -- 96
2021-02-09 20:00:00 9.2 9 Oeste 35 Oeste 3.4 907.6 -- 98
2021-02-09 19:00:00 9.2 7 Oeste 40 Sudoeste 4.1 907.3 -- 97
2021-02-09 18:00:00 9.1 8 Oeste 49 Noroeste 3.5 906.8 -- 97
2021-02-09 17:00:00 9.2 9 Oeste 43 Noroeste 11.8 907.1 -- 96
2021-02-09 16:00:00 9.4 6 Oeste 41 Noroeste 2.2 906.8 -- 97
2021-02-09 15:00:00 9.3 11 Oeste 44 Oeste 0.1 907.2 -- 96
2021-02-09 14:00:00 8.9 9 Oeste 41 Oeste 4.8 907.6 -- 96
2021-02-09 13:00:00 9 12 Oeste 39 Norte 2 908.1 -- 96
2021-02-09 12:00:00 8.1 11 Oeste 33 Oeste 2.1 908.8 -- 95
2021-02-09 11:00:00 8 10 Oeste 26 Oeste 0.8 908.4 -- 95
2021-02-09 10:00:00 7.7 10 Oeste 37 Oeste 0.1 908.6 -- 91
2021-02-09 09:00:00 7.6 11 Oeste 36 Oeste 0.7 908.2 -- 95
2021-02-09 08:00:00 7.4 11 Oeste 39 Oeste 1.7 908.4 -- 96
2021-02-09 07:00:00 7.3 8 Oeste 43 Oeste 0.7 908.6 -- 96
2021-02-09 06:00:00 7 11 Oeste 30 Sudoeste 0 908.5 -- 93
2021-02-09 05:00:00 6.7 12 Oeste 31 Sudoeste 0 908.4 -- 93
2021-02-09 04:00:00 6.8 11 Oeste 34 Oeste 0 908.9 -- 92
2021-02-09 03:00:00 7.3 9 Oeste 30 Oeste 0 909.5 -- 94
2021-02-09 02:00:00 7.1 8 Oeste 30 Oeste 0.1 909.5 -- 95
2021-02-09 01:00:00 7.2 5 Oeste 31 Sudoeste 0 909.9 -- 95
2021-02-09 00:00:00 7.2 7 Oeste 30 Oeste 0 910 -- 95
2021-02-08 23:00:00 7.3 8 Oeste 26 Noroeste 0 910 -- 95
2021-02-08 22:00:00 7.4 9 Noroeste 30 Noroeste 0.1 910 -- 94
2021-02-08 21:00:00 7.5 12 Oeste 29 Oeste 0.3 909.4 -- 93
2021-02-08 20:00:00 7.6 9 Oeste 33 Oeste 0 908.7 -- 93
2021-02-08 19:00:00 7.7 11 Oeste 35 Oeste 0 908.1 -- 90
2021-02-08 18:00:00 8.1 8 Oeste 40 Sudoeste 0 907.8 -- 88
2021-02-08 17:00:00 8.3 9 Oeste 32 Oeste 0 907.1 -- 85
2021-02-08 16:00:00 8.1 10 Oeste 27 Oeste 0 907 -- 80
2021-02-08 15:00:00 8.2 10 Oeste 41 Oeste 0 906.9 -- 82
2021-02-08 14:00:00 8.4 10 Oeste 33 Oeste 0 907.2 -- 79
2021-02-08 13:00:00 8 11 Oeste 30 Sudoeste 0 907.6 -- 83
2021-02-08 12:00:00 8.1 10 Oeste 31 Sudoeste 0 907.6 -- 86
2021-02-08 11:00:00 7.2 10 Oeste 39 Oeste 0 907.6 -- 89
2021-02-08 10:00:00 6.5 11 Oeste 32 Sudoeste 0.9 907.5 -- 92
2021-02-08 09:00:00 6.6 11 Oeste 36 Sudoeste 2.7 906.4 -- 93
2021-02-08 08:00:00 8.5 13 Oeste 41 Noroeste 11.7 905.6 -- 97
2021-02-08 07:00:00 9.1 7 Oeste 37 Oeste 12.6 904.4 -- 97
2021-02-08 06:00:00 8.5 9 Oeste 38 Sudoeste 14.8 904.6 -- 97
2021-02-08 05:00:00 8.1 10 Oeste 42 Oeste 7.3 905.4 -- 96
2021-02-08 04:00:00 7.5 12 Oeste 35 Oeste 3.9 906.2 -- 97
2021-02-08 03:00:00 7.3 8 Oeste 34 Oeste 3.1 906.8 -- 98
2021-02-08 02:00:00 7.5 11 Oeste 37 Sudoeste 2.9 907.5 -- 97
2021-02-08 01:00:00 6.7 9 Oeste 27 Sudoeste 5.7 908.3 -- 97
2021-02-08 00:00:00 6.6 5 Oeste 28 Sudoeste 5.5 908.9 -- 97
2021-02-07 23:00:00 6.1 9 Oeste 27 Sudoeste 5.2 909.4 -- 96
2021-02-07 22:00:00 5.8 10 Oeste 32 Sudoeste 1.7 909.6 -- 96
2021-02-07 21:00:00 5.4 14 Oeste 31 Oeste 0.9 909.6 -- 96
2021-02-07 20:00:00 4.2 10 Oeste 31 Oeste 0 909.2 -- 95
2021-02-07 19:00:00 4.3 12 Oeste 33 Oeste 0 909.1 -- 92
2021-02-07 18:00:00 4.3 15 Oeste 40 Sudoeste 0 908.9 -- 87
2021-02-07 17:00:00 4 13 Oeste 30 Oeste 0 908.5 -- 88
2021-02-07 16:00:00 4 12 Oeste 37 Oeste 0 907.9 -- 88
2021-02-07 15:00:00 5.3 10 Oeste 33 Noroeste 0 907.6 -- 93
2021-02-07 14:00:00 5.4 12 Oeste 31 Noroeste 0 907.9 -- 92
2021-02-07 13:00:00 5.5 10 Oeste 37 Oeste 0 908.1 -- 95
2021-02-07 12:00:00 5.5 9 Oeste 26 Oeste 0.1 908 -- 99
2021-02-07 11:00:00 5.4 8 Oeste 22 Oeste 0 907.6 -- 98
2021-02-07 10:00:00 5.1 6 Oeste 19 Oeste 0.1 906.9 -- 99
2021-02-07 09:00:00 4.7 7 Oeste 19 Oeste 0 905.9 -- 98
2021-02-07 08:00:00 5 6 Oeste 21 Oeste 0.7 905.3 -- 98
2021-02-07 07:00:00 5.1 6 Oeste 24 Oeste 0 904.7 -- 97
2021-02-07 06:00:00 4.7 8 Oeste 20 Oeste 0.6 904.2 -- 97
2021-02-07 05:00:00 4.6 7 Oeste 17 Noroeste 0.5 904.1 -- 97
2021-02-07 04:00:00 4.9 7 Noroeste 15 Sudoeste 1.7 904.1 -- 95
2021-02-07 03:00:00 4.5 5 Oeste 18 Oeste 4 903.8 -- 95
2021-02-07 02:00:00 4.3 6 Oeste 19 Oeste 2.5 903.7 -- 95
2021-02-07 01:00:00 4.3 4 Oeste 27 Oeste 0.6 903.8 -- 94
2021-02-07 00:00:00 5.2 6 Oeste 26 Oeste 0.7 903.8 -- 94
2021-02-06 23:00:00 5 8 Oeste 26 Oeste 3.1 903.8 -- 94
2021-02-06 22:00:00 5.5 6 Oeste 20 Sudoeste 0.5 903.2 -- 93
2021-02-06 21:00:00 6 9 Oeste 29 Norte 1.7 902.9 -- 95
2021-02-06 20:00:00 6.2 7 Oeste 27 Noroeste 0.5 902.6 -- 94
2021-02-06 19:00:00 6.1 8 Oeste 22 Sudoeste 1.2 901.9 -- 94
2021-02-06 18:00:00 6 5 Oeste 26 Noroeste 1 901.5 -- 95
2021-02-06 17:00:00 6.7 5 Noroeste 30 Oeste 0.3 901.4 -- 93
2021-02-06 16:00:00 6.8 8 Oeste 35 Sudoeste 0.3 900.9 -- 91
2021-02-06 15:00:00 7.3 9 Oeste 37 Oeste 0.5 900.9 -- 93
2021-02-06 14:00:00 7.3 5 Oeste 27 Noroeste 0 901.1 -- 91
2021-02-06 13:00:00 7.1 7 Oeste 32 Oeste 0.1 901.9 -- 93
2021-02-06 12:00:00 6.5 2 Oeste 23 Noroeste 0.5 902 -- 92
2021-02-06 11:00:00 6.2 3 Sudoeste 21 Noroeste 4.3 901.8 -- 94
2021-02-06 10:00:00 6.3 8 Oeste 29 Oeste 0.9 901.1 -- 93
2021-02-06 09:00:00 6.2 7 Oeste 24 Oeste 0 900.9 -- 95
2021-02-06 08:00:00 5.9 4 Oeste 26 Sudoeste 0 900.4 -- 96
2021-02-06 07:00:00 5.7 0 Calma 29 Oeste 0 900.2 -- 96
2021-02-06 06:00:00 5.7 5 Oeste 34 Sudoeste 1 900.1 -- 94
2021-02-06 05:00:00 6 8 Oeste 28 Sudoeste 0.6 900 -- 96
2021-02-06 04:00:00 6.2 8 Oeste 37 Noroeste 2.9 900 -- 96
2021-02-06 03:00:00 7.1 6 Oeste 22 Norte 1.4 899.6 -- 94
2021-02-06 02:00:00 7 6 Oeste 20 Oeste 2 899.5 -- 94
2021-02-06 01:00:00 7 4 Sudoeste 28 Sudoeste 1.9 899.3 -- 92
2021-02-06 00:00:00 7.1 10 Oeste 31 Sudoeste 0.4 899.3 -- 91
2021-02-05 23:00:00 7 8 Oeste 26 Oeste 2.4 900 -- 92
2021-02-05 22:00:00 7.2 8 Oeste 31 Sudoeste 2.2 899.9 -- 91
2021-02-05 21:00:00 7.6 10 Oeste 29 Oeste 0.4 899.8 -- 88
2021-02-05 20:00:00 7.5 9 Sudoeste 25 Sur 0 899.5 -- 90
2021-02-05 19:00:00 7.6 6 Oeste 24 Oeste 0 899.5 -- 87
2021-02-05 18:00:00 8.3 6 Oeste 35 Oeste 0 899.6 -- 82
2021-02-05 17:00:00 8.5 8 Oeste 23 Sudoeste 0.4 899.3 -- 80
2021-02-05 16:00:00 8.9 7 Oeste 23 Oeste 0 899.9 -- 83
2021-02-05 15:00:00 9.5 12 Noroeste 22 Oeste 0.2 899.6 -- 79
2021-02-05 14:00:00 10.1 9 Oeste 20 Noroeste 0.2 900.4 -- 81
2021-02-05 13:00:00 11.7 5 Oeste 17 Este 0 901.1 -- 81
2021-02-05 12:00:00 11.7 8 Este 21 Este 0 901.3 -- 75
2021-02-05 11:00:00 10.4 7 Oeste 13 Oeste 0 901.8 -- 79
2021-02-05 10:00:00 9.8 0 Calma 12 Noroeste 0 901.3 -- 80
2021-02-05 09:00:00 7.2 8 Noroeste 13 Noroeste 0 900.9 -- 91
2021-02-05 08:00:00 6.2 4 Noroeste 14 Noroeste 0 900.3 -- 90
2021-02-05 07:00:00 5.8 8 Noroeste 13 Noroeste 0 899.9 -- 90
2021-02-05 06:00:00 6.2 6 Noroeste 13 Noroeste 0 899.8 -- 83
2021-02-05 05:00:00 8.5 9 Noroeste 16 Oeste 0 900.3 -- 80
2021-02-05 04:00:00 8.1 9 Noroeste 13 Noroeste 0 900.7 -- 70
2021-02-05 03:00:00 9.7 6 Noroeste 12 Sudeste 0 901.3 -- 63
2021-02-05 02:00:00 12.1 3 Sur 19 Sudeste 0 902 -- 51
2021-02-05 01:00:00 14.1 5 Sur 15 Sur 0 902.7 -- 41
2021-02-05 00:00:00 12.7 4 Sudeste 11 Sur 0 903.3 -- 48
2021-02-04 23:00:00 10.1 6 Noroeste 11 Noroeste 0 903.6 -- 67
2021-02-04 22:00:00 9.9 8 Noroeste 11 Noroeste 0 903.6 -- 73
2021-02-04 21:00:00 9.8 6 Noroeste 9 Noroeste 0 904.2 -- 76
2021-02-04 20:00:00 9.6 5 Noroeste 10 Noroeste 0 904.3 -- 76
2021-02-04 19:00:00 10.9 5 Noroeste 9 Noroeste 0 904.7 -- 79
2021-02-04 18:00:00 13 0 Calma 9 Este 0 904.9 -- 83
2021-02-04 17:00:00 14.2 5 Este 9 Sudeste 0 905.3 -- 76
2021-02-04 16:00:00 15.5 4 Norte 18 Sudeste 0 905.2 -- 60
2021-02-04 15:00:00 14.5 5 Noroeste 20 Noroeste 0 905.4 -- 61
2021-02-04 14:00:00 15.9 3 Noroeste 23 Noroeste 0 905.9 -- 55
2021-02-04 13:00:00 15.6 9 Oeste 23 Oeste 0 906.7 -- 58
2021-02-04 12:00:00 15.8 3 Sudoeste 33 Sur 0 907.1 -- 46
2021-02-04 11:00:00 14.9 5 Sudeste 26 Sudeste 0 906.6 -- 43
2021-02-04 10:00:00 11.6 5 Oeste 25 Oeste 0 906.7 -- 66
2021-02-04 09:00:00 9.7 11 Noroeste 22 Oeste 0 906.9 -- 78
2021-02-04 08:00:00 9.2 10 Oeste 26 Oeste 0 907.2 -- 79
2021-02-04 07:00:00 8.5 9 Oeste 23 Oeste 0 906.9 -- 79
2021-02-04 06:00:00 5.7 2 Sur 11 Sudoeste 0 906.8 -- 96
2021-02-04 05:00:00 5.9 5 Noroeste 13 Sudoeste 0 908 -- 97
2021-02-04 04:00:00 5.5 4 Noroeste 8 Noroeste 0 908.6 -- 97
2021-02-04 03:00:00 4 5 Noroeste 8 Noroeste 0 908.9 -- 94
2021-02-04 02:00:00 5.3 3 Noroeste 9 Noroeste 0 909.5 -- 96
2021-02-04 01:00:00 6.3 5 Noroeste 8 Noroeste 0 910 -- 94
2021-02-04 00:00:00 7.8 0 Calma 7 Noroeste 0 910.6 -- 94
2021-02-03 23:00:00 7.5 5 Noroeste 9 Oeste 0 910.8 -- 94
2021-02-03 22:00:00 7.7 6 Noroeste 14 Noroeste 0 910.9 -- 95
2021-02-03 21:00:00 8.3 2 Noroeste 9 Noroeste 0 911.1 -- 92
2021-02-03 20:00:00 9.2 0 Calma 14 Oeste 0 911 -- 89
2021-02-03 19:00:00 10.2 0 Calma 9 Noroeste 0 911.1 -- 89
2021-02-03 18:00:00 11 3 Sudeste 6 Este 0 911.2 -- 84
2021-02-03 17:00:00 12.4 2 Este 15 Noroeste 0 911.2 -- 78
2021-02-03 16:00:00 14 9 Oeste 19 Oeste 0 911.4 -- 52
2021-02-03 15:00:00 14.1 5 Oeste 15 Oeste 0 911.7 -- 58
2021-02-03 14:00:00 14.3 0 Calma 18 Sudoeste 0 912.3 -- 67
2021-02-03 13:00:00 12.2 4 Este 17 Oeste 0 913 -- 75
2021-02-03 12:00:00 11.1 3 Este 9 Sur 0 913.5 -- 81
2021-02-03 11:00:00 9.5 0 Calma 10 Este 0 913.6 -- 88
2021-02-03 10:00:00 7.1 0 Calma 5 Sur 0 913.4 -- 98
2021-02-03 09:00:00 6 0 Calma 6 Oeste 0 913.4 -- 98
2021-02-03 08:00:00 6.4 0 Calma 5 Sur 0 913.3 -- 98
2021-02-03 07:00:00 5.9 0 Calma 5 Sur 0 912.9 -- 98
2021-02-03 06:00:00 5.1 2 Noroeste 9 Noroeste 0 912.7 -- 98
2021-02-03 05:00:00 5 4 Noroeste 7 Noroeste 0 913 -- 98
2021-02-03 04:00:00 5.7 2 Noroeste 5 Noroeste 0 913.6 -- 98
2021-02-03 03:00:00 5.4 2 Noroeste 5 Noroeste 0 913.9 -- 97
2021-02-03 02:00:00 5.4 2 Noroeste 6 Noroeste 0 914 -- 96
2021-02-03 01:00:00 5.5 4 Noroeste 7 Noroeste 0 914.5 -- 91
2021-02-03 00:00:00 6.4 0 Calma 9 Noroeste 0 914.6 -- 92
2021-02-02 23:00:00 7.3 2 Oeste 9 Noroeste 0 914.7 -- 84
2021-02-02 22:00:00 9.2 8 Noroeste 14 Noroeste 0 914.4 -- 51
2021-02-02 21:00:00 6.7 8 Noroeste 13 Noroeste 0 914.3 -- 77
2021-02-02 20:00:00 7 7 Noroeste 11 Noroeste 0 914.6 -- 89
2021-02-02 19:00:00 9 5 Noroeste 8 Noroeste 0 914.5 -- 91
2021-02-02 18:00:00 11.5 2 Sudoeste 6 Sur 0 914.1 -- 85
2021-02-02 17:00:00 13.7 0 Calma 5 Sudeste 0 914 -- 76
2021-02-02 16:00:00 15.1 4 Sudeste 9 Sudeste 0 914 -- 69
2021-02-02 15:00:00 15.1 5 Sudeste 10 Sudeste 0 914.7 -- 71
2021-02-02 14:00:00 14.5 4 Este 11 Sudeste 0 915.4 -- 73
2021-02-02 13:00:00 12.7 3 Este 11 Sudeste 0 916.4 -- 79
2021-02-02 12:00:00 11.3 4 Sudeste 9 Sudeste 0 916.8 -- 83
2021-02-02 11:00:00 8.4 2 Sudeste 5 Este 0 916.5 -- 96
2021-02-02 10:00:00 6.7 0 Calma 6 Oeste 0 916.4 -- 99
2021-02-02 09:00:00 6.2 0 Calma 6 Sur 0 916.4 -- 98
2021-02-02 08:00:00 6.5 2 Noroeste 5 Noroeste 0 916.1 -- 98
2021-02-02 07:00:00 7.1 0 Calma 0 Calma 0 916.4 -- 98
2021-02-02 06:00:00 7.3 0 Calma 4 Sudeste 0 916.5 -- 98
2021-02-02 05:00:00 7 2 Sudeste 9 Este 0 916.6 -- 98
2021-02-02 04:00:00 7.2 2 Sur 6 Sudeste 0 916.6 -- 98
2021-02-02 03:00:00 6.9 2 Sudeste 5 Sudeste 0 916.8 -- 98
2021-02-02 02:00:00 6.6 3 Noroeste 7 Noroeste 0 917 -- 98
2021-02-02 01:00:00 6.3 0 Calma 7 Oeste 0 916.9 -- 98
2021-02-02 00:00:00 5.4 4 Noroeste 7 Noroeste 0 916.9 -- 95
2021-02-01 23:00:00 5.8 4 Noroeste 9 Noroeste 0 917 -- 94
2021-02-01 22:00:00 6.6 2 Oeste 12 Norte 0 917.3 -- 94
2021-02-01 21:00:00 7.7 2 Oeste 17 Noroeste 0 917.3 -- 94
2021-02-01 20:00:00 8.5 7 Noroeste 17 Noroeste 0 917.2 -- 76
2021-02-01 19:00:00 8.8 5 Noroeste 19 Noroeste 0 916.7 -- 85
2021-02-01 18:00:00 9.4 11 Noroeste 26 Noroeste 0 916.5 -- 90
2021-02-01 17:00:00 10.5 12 Noroeste 23 Noroeste 0 916.8 -- 85
2021-02-01 16:00:00 12.5 9 Oeste 28 Oeste 0 916.6 -- 78
2021-02-01 15:00:00 12.3 9 Oeste 23 Oeste 0 916.7 -- 80
2021-02-01 14:00:00 12.2 10 Oeste 27 Sudoeste 0 917 -- 82
2021-02-01 13:00:00 12.1 10 Oeste 25 Oeste 0 917.4 -- 83
2021-02-01 12:00:00 11.8 12 Noroeste 25 Oeste 0 917.7 -- 83
2021-02-01 11:00:00 11.9 10 Noroeste 24 Noroeste 0 917.5 -- 87
2021-02-01 10:00:00 11.2 12 Noroeste 24 Oeste 0 916.8 -- 90
2021-02-01 09:00:00 10.2 11 Oeste 24 Noroeste 0 916.5 -- 92
2021-02-01 08:00:00 9.7 10 Oeste 24 Oeste 0 916 -- 93
2021-02-01 07:00:00 10 10 Noroeste 28 Noroeste 0.1 915.9 -- 92
2021-02-01 06:00:00 10.3 9 Noroeste 31 Noroeste 0.6 916 -- 92
2021-02-01 05:00:00 10.4 12 Noroeste 32 Noroeste 1.1 915.7 -- 94
2021-02-01 04:00:00 10.6 12 Oeste 30 Sur 2 915.5 -- 94
2021-02-01 03:00:00 10.9 10 Oeste 30 Sudoeste 2.2 916.1 -- 96
2021-02-01 02:00:00 10.6 10 Oeste 31 Sudoeste 2.5 916.1 -- 96
2021-02-01 01:00:00 10.1 12 Oeste 36 Oeste 2.3 916.4 -- 95
2021-02-01 00:00:00 9.9 13 Oeste 28 Noroeste 3.2 916.3 -- 96
2021-01-31 23:00:00 10 11 Oeste 30 Oeste 2.4 916.4 -- 97
2021-01-31 22:00:00 9.5 11 Oeste 30 Noroeste 2.5 916.1 -- 97
2021-01-31 21:00:00 8.9 14 Oeste 31 Noroeste 0.2 915.7 -- 97
2021-01-31 20:00:00 8.5 14 Noroeste 35 Oeste 0 916.1 -- 93
2021-01-31 19:00:00 8.8 12 Oeste 36 Oeste 0 915.9 -- 91
2021-01-31 18:00:00 9.1 10 Oeste 28 Sudoeste 0 916 -- 85
2021-01-31 17:00:00 9.9 10 Oeste 30 Sudoeste 0 916.2 -- 89
2021-01-31 16:00:00 10.5 12 Oeste 31 Oeste 0 916 -- 77
2021-01-31 15:00:00 11.1 11 Noroeste 36 Sudoeste 0 916.4 -- 75
2021-01-31 14:00:00 11.3 12 Oeste 34 Noroeste 0 916.9 -- 75
2021-01-31 13:00:00 11.1 17 Noroeste 43 Noroeste 0 917.5 -- 78
2021-01-31 12:00:00 10.9 16 Noroeste 35 Noroeste 0 918 -- 78
2021-01-31 11:00:00 10.6 14 Noroeste 33 Noroeste 0.1 917.6 -- 79
2021-01-31 10:00:00 9.6 12 Noroeste 38 Oeste 0 917.2 -- 83
2021-01-31 09:00:00 8.2 11 Oeste 32 Noroeste 0 916.8 -- 87
2021-01-31 08:00:00 6.8 13 Noroeste 35 Noroeste 0 916.6 -- 94
2021-01-31 07:00:00 7.1 15 Noroeste 37 Norte 0 916.3 -- 85
2021-01-31 06:00:00 6.5 14 Noroeste 32 Norte 0 915.5 -- 87
2021-01-31 05:00:00 6.7 14 Noroeste 40 Noroeste 0 915.6 -- 84
2021-01-31 04:00:00 6.7 14 Noroeste 36 Noroeste 0 915.4 -- 73
2021-01-31 03:00:00 6.5 15 Noroeste 39 Noroeste 0 915.7 -- 84
2021-01-31 02:00:00 6.6 16 Oeste 34 Oeste 0 915.9 -- 89
2021-01-31 01:00:00 7 13 Noroeste 37 Noroeste 0 916.1 -- 85
2021-01-31 00:00:00 7.2 10 Noroeste 32 Norte 0 916 -- 76